When you browse on this site, cookies collect data to enhance your experience and personalize the content and advertising you see.
Visit our Privacy Policy to learn more. By continuing to use the site, you agree to this use of cookies and data.
  • In Hungary
  • List of Countries
  • For 7 days
  • Water Temperature
  • Weather Map
  • News
  • Weather Widgets
  • user-avatar
    Login

    Hourly Weather Bolshetenkashevo

    Today, 26 February, Wednesday

    Time Temperature Precipitation Wind Pressure Humidity
    00:00 -2°C° 0.5 mm 5 mps 739 mmHg 93%
    01:00 -2°C° 0.5 mm 5 mps 738 mmHg 94%
    02:00 -2°C° 0.3 mm 5 mps 738 mmHg 95%
    03:00 -2°C° 0.3 mm 5 mps 737 mmHg 96%
    04:00 -2°C° 0.3 mm 4 mps 736 mmHg 97%
    05:00 -2°C° 0.7 mm 4 mps 736 mmHg 97%
    06:00 -2°C° 0.7 mm 4 mps 735 mmHg 97%
    07:00 -1°C° 0.7 mm 3 mps 734 mmHg 98%
    08:00 -1°C° 0.3 mm 3 mps 734 mmHg 98%
    09:00 -1°C° 0.3 mm 2 mps 734 mmHg 99%
    10:00 -1°C° 0.3 mm 2 mps 733 mmHg 99%
    11:00 +1°C° 0.1 mm 1 mps 733 mmHg 99%
    12:00 +1°C° 0.1 mm 1 mps 733 mmHg 99%
    13:00 +2°C° 0.1 mm 1 mps 733 mmHg 99%
    14:00 0°C° 0.2 mm 3 mps 734 mmHg 99%
    15:00 -1°C° 0.2 mm 5 mps 735 mmHg 98%
    16:00 -2°C° 0.2 mm 7 mps 735 mmHg 98%
    17:00 -3°C° 0.1 mm 7 mps 736 mmHg 96%
    18:00 -4°C° 0.1 mm 8 mps 737 mmHg 93%
    19:00 -5°C° 0.1 mm 8 mps 738 mmHg 91%
    20:00 -6°C° 0 mm 8 mps 739 mmHg 91%
    21:00 -6°C° 0 mm 7 mps 740 mmHg 91%
    22:00 -7°C° 0 mm 7 mps 741 mmHg 91%
    23:00 -6°C° 0 mm 6 mps 742 mmHg 90%

    Tomorrow, 27 February, Thursday

    Time Temperature Precipitation Wind Pressure Humidity
    00:00 -8°C° 0 mm 6 mps 743 mmHg 90%
    01:00 -7°C° 0 mm 5 mps 743 mmHg 90%
    02:00 -8°C° 0 mm 5 mps 744 mmHg 91%
    03:00 -9°C° 0 mm 4 mps 745 mmHg 92%
    04:00 -9°C° 0 mm 3 mps 746 mmHg 94%
    05:00 -10°C° 0 mm 3 mps 747 mmHg 94%
    06:00 -12°C° 0 mm 3 mps 747 mmHg 95%
    07:00 -13°C° 0 mm 3 mps 748 mmHg 96%
    08:00 -12°C° 0 mm 3 mps 748 mmHg 94%
    09:00 -11°C° 0 mm 4 mps 748 mmHg 92%
    10:00 -10°C° 0 mm 5 mps 748 mmHg 91%
    11:00 -9°C° 0.2 mm 6 mps 747 mmHg 92%
    12:00 -8°C° 0.2 mm 6 mps 747 mmHg 94%
    13:00 -5°C° 0.2 mm 6 mps 747 mmHg 95%
    14:00 -4°C° 0.7 mm 6 mps 747 mmHg 97%
    15:00 -3°C° 0.7 mm 6 mps 747 mmHg 98%
    16:00 -2°C° 0.7 mm 6 mps 748 mmHg 99%
    17:00 -2°C° 0.6 mm 6 mps 748 mmHg 98%
    18:00 -2°C° 0.6 mm 6 mps 748 mmHg 98%
    19:00 -2°C° 0.6 mm 6 mps 749 mmHg 97%
    20:00 -2°C° 0.3 mm 6 mps 749 mmHg 94%
    21:00 -2°C° 0.3 mm 6 mps 749 mmHg 91%
    22:00 -2°C° 0.3 mm 7 mps 750 mmHg 88%
    23:00 -2°C° 0 mm 6 mps 750 mmHg 87%

    Day after tomorrow, 28 February, Friday

    Time Temperature Precipitation Wind Pressure Humidity
    00:00 -3°C° 0 mm 6 mps 750 mmHg 86%
    01:00 -2°C° 0 mm 5 mps 750 mmHg 85%
    02:00 -2°C° 0.2 mm 6 mps 749 mmHg 86%
    03:00 -2°C° 0.2 mm 6 mps 749 mmHg 87%
    04:00 -2°C° 0.2 mm 7 mps 749 mmHg 88%
    05:00 -2°C° 0.1 mm 7 mps 749 mmHg 87%
    06:00 -3°C° 0.1 mm 7 mps 749 mmHg 85%
    07:00 -3°C° 0.1 mm 7 mps 749 mmHg 83%
    08:00 -3°C° 0 mm 7 mps 749 mmHg 83%
    09:00 -2°C° 0 mm 7 mps 749 mmHg 83%
    10:00 -2°C° 0 mm 7 mps 749 mmHg 84%
    11:00 -2°C° 0 mm 7 mps 749 mmHg 86%
    12:00 -2°C° 0 mm 6 mps 750 mmHg 89%
    13:00 -2°C° 0 mm 6 mps 750 mmHg 91%
    14:00 -2°C° 0 mm 6 mps 750 mmHg 89%
    15:00 -2°C° 0 mm 6 mps 750 mmHg 88%
    16:00 -1°C° 0 mm 5 mps 750 mmHg 86%
    17:00 -1°C° 0 mm 5 mps 750 mmHg 85%
    18:00 -2°C° 0 mm 5 mps 751 mmHg 84%
    19:00 -2°C° 0 mm 5 mps 751 mmHg 82%
    20:00 -2°C° 0 mm 5 mps 751 mmHg 83%
    21:00 -2°C° 0 mm 5 mps 751 mmHg 83%
    22:00 -4°C° 0 mm 5 mps 751 mmHg 83%
    23:00 -3°C° 0 mm 4 mps 750 mmHg 83%

    29 February, Saturday

    Time Temperature Precipitation Wind Pressure Humidity
    00:00 -3°C° 0 mm 4 mps 750 mmHg 83%
    01:00 -3°C° 0 mm 4 mps 750 mmHg 83%
    02:00 -3°C° 0 mm 4 mps 750 mmHg 83%
    03:00 -3°C° 0 mm 4 mps 750 mmHg 82%
    04:00 -2°C° 0 mm 3 mps 750 mmHg 81%
    05:00 -2°C° 0 mm 3 mps 749 mmHg 79%
    06:00 -4°C° 0 mm 3 mps 749 mmHg 78%
    07:00 -5°C° 0 mm 3 mps 748 mmHg 77%
    08:00 -4°C° 0 mm 3 mps 748 mmHg 77%
    09:00 -2°C° 0 mm 3 mps 747 mmHg 78%
    10:00 -2°C° 0 mm 4 mps 747 mmHg 78%
    11:00 -2°C° 0 mm 4 mps 747 mmHg 81%
    12:00 -1°C° 0 mm 4 mps 746 mmHg 83%
    13:00 -1°C° 0 mm 4 mps 746 mmHg 86%
    14:00 -1°C° 0 mm 4 mps 746 mmHg 86%
    15:00 -1°C° 0 mm 4 mps 745 mmHg 87%
    16:00 -1°C° 0 mm 5 mps 745 mmHg 87%
    17:00 -2°C° 0.2 mm 5 mps 745 mmHg 90%
    18:00 -2°C° 0.2 mm 5 mps 745 mmHg 93%
    19:00 -4°C° 0.2 mm 6 mps 746 mmHg 96%
    20:00 -4°C° 0.2 mm 5 mps 746 mmHg 96%
    21:00 -4°C° 0.2 mm 5 mps 746 mmHg 96%
    22:00 -3°C° 0.2 mm 4 mps 746 mmHg 96%
    23:00 -3°C° 0.1 mm 4 mps 746 mmHg 96%

    1 March, Sunday

    Time Temperature Precipitation Wind Pressure Humidity
    00:00 -2°C° 0.1 mm 3 mps 747 mmHg 96%
    01:00 -1°C° 0.1 mm 3 mps 747 mmHg 96%
    02:00 -1°C° 0.1 mm 3 mps 747 mmHg 97%
    03:00 -1°C° 0.1 mm 2 mps 748 mmHg 97%
    04:00 -1°C° 0.1 mm 2 mps 748 mmHg 97%
    05:00 -2°C° 0.1 mm 2 mps 748 mmHg 97%
    06:00 -2°C° 0.1 mm 2 mps 749 mmHg 97%
    07:00 -2°C° 0.1 mm 2 mps 749 mmHg 98%
    08:00 -2°C° 0 mm 2 mps 750 mmHg 98%
    09:00 -1°C° 0 mm 2 mps 750 mmHg 99%
    10:00 +1°C° 0 mm 1 mps 750 mmHg 99%
    11:00 +1°C° 0 mm 1 mps 751 mmHg 99%
    12:00 +1°C° 0 mm 1 mps 751 mmHg 99%
    13:00 +1°C° 0 mm 1 mps 751 mmHg 99%
    14:00 +1°C° 0 mm 1 mps 751 mmHg 99%
    15:00 +1°C° 0 mm 1 mps 751 mmHg 98%
    16:00 +1°C° 0 mm 1 mps 751 mmHg 98%
    17:00 0°C° 0 mm 1 mps 752 mmHg 97%
    18:00 0°C° 0 mm 1 mps 752 mmHg 96%
    19:00 -1°C° 0 mm 1 mps 752 mmHg 95%
    20:00 -2°C° 0 mm 1 mps 752 mmHg 94%
    21:00 -3°C° 0 mm 1 mps 753 mmHg 94%
    22:00 -3°C° 0 mm 1 mps 753 mmHg 93%
    23:00 -4°C° 0 mm 1 mps 753 mmHg 93%

    2 March, Monday

    Time Temperature Precipitation Wind Pressure Humidity
    00:00 -4°C° 0 mm 1 mps 753 mmHg 92%
    01:00 -6°C° 0 mm 1 mps 753 mmHg 92%
    02:00 -6°C° 0 mm 1 mps 753 mmHg 91%
    03:00 -6°C° 0 mm 1 mps 753 mmHg 91%
    04:00 -6°C° 0 mm 1 mps 753 mmHg 90%
    05:00 -7°C° 0 mm 1 mps 754 mmHg 90%
    06:00 -7°C° 0 mm 1 mps 754 mmHg 90%
    07:00 -7°C° 0 mm 1 mps 754 mmHg 89%
    08:00 -6°C° 0 mm 1 mps 754 mmHg 89%
    09:00 -3°C° 0 mm 1 mps 755 mmHg 89%
    10:00 -3°C° 0 mm 0 mps 755 mmHg 89%
    11:00 -2°C° 0 mm 0 mps 755 mmHg 92%
    12:00 -1°C° 0 mm 0 mps 755 mmHg 94%
    13:00 0°C° 0 mm 1 mps 755 mmHg 96%
    14:00 0°C° 0 mm 0 mps 755 mmHg 96%
    15:00 0°C° 0 mm 0 mps 755 mmHg 96%
    16:00 0°C° 0 mm 0 mps 755 mmHg 95%
    17:00 -1°C° 0 mm 0 mps 755 mmHg 95%
    18:00 -1°C° 0 mm 0 mps 755 mmHg 94%
    19:00 -2°C° 0 mm 0 mps 756 mmHg 94%
    20:00 -2°C° 0 mm 0 mps 756 mmHg 93%
    21:00 -1°C° 0 mm 1 mps 756 mmHg 93%
    22:00 -1°C° 0 mm 1 mps 756 mmHg 93%
    23:00 -1°C° 0 mm 1 mps 756 mmHg 92%
    Show more